Preview of NWS' New Version of Forecast
This preview is not operational and should not be used for support decisions.

Regional Weather Roundup (RWR)

Issued by Philadelphia/Mt Holly (PHI)

                            
000
ASUS41 KPHI 170212
RWRPHI

REGIONAL WEATHER ROUNDUP
NATIONAL WEATHER SERVICE MOUNT HOLLY NJ
1000 PM EDT MON SEP 16 2019

NOTE:  "FAIR" INDICATES FEW OR NO CLOUDS BELOW 12,000 FEET WITH NO
SIGNIFICANT WEATHER AND/OR OBSTRUCTIONS TO VISIBILITY.

 * = STATION DOES NOT REPORT PRECIPITATION (E.G. RAIN, SNOW, ETC.) 
        OR FOG.

NJZ015>026-170300-
SOUTHERN NEW JERSEY
  
CITY           SKY/WX    TMP DP  RH WIND       PRES   REMARKS
POMONA         MOCLDY    70  65  84 E3        30.02R                  
WILDWOOD*      CLOUDY    72  69  90 CALM      30.01S                  
MILLVILLE      CLOUDY   N/A N/A N/A CALM      30.01R                  
WRIGHTSTOWN    FAIR      66  63  90 CALM      30.03R                  
MOUNT HOLLY    FAIR      69  64  84 CALM      30.02S                  
TRENTON        CLOUDY    70  63  78 CALM      30.03R                  

$$
NJZ001>014-170300-
NORTHERN NEW JERSEY
  
CITY           SKY/WX    TMP DP  RH WIND       PRES   REMARKS
SUSSEX         FOG       59  58  96 CALM      30.06R VSB 1/2          
ANDOVER*         N/A     62  60  93 CALM      30.06R                  
MORRISTOWN     MOCLDY    66  66 100 CALM      30.04S                  
NEWARK         MOCLDY    72  64  76 CALM      30.03S                  
TETERBORO      MOCLDY    72  61  68 NE3       30.03R                  
CALDWELL       FAIR      67  64  90 CALM      30.05R                  
SOMERVILLE     FAIR      69  66  90 CALM      30.02S                  
ALLAIRE*       FAIR      67  65  93 CALM      30.04S                  
TOMS RIVER*    FAIR      67  32  27 CALM      30.03S                  

$$
PAZ043-044-047-054-055-060>062-066>071-170300-
EASTERN PENNSYLVANIA
  
CITY           SKY/WX    TMP DP  RH WIND       PRES   REMARKS
PHILADELPHIA   CLOUDY    73  63  70 E9        30.02R                  
NORTH PHILA    FAIR      73  61  65 E6        30.04R                  
BLUE BELL*     CLOUDY    69  64  84 E3        30.04R                  
DOYLESTOWN     CLOUDY    71  63  75 CALM      30.04R                  
QUAKERTOWN*    PTCLDY    70  66  88 CALM      30.05                   
PERKASIE*      MOCLDY    68  66  94 NE3       30.06S                  
POTTSTOWN      MOCLDY    68  65  90 NE7       30.05R                  
LANCASTER      CLOUDY    73  63  70 NE8       30.03R                  
COATESVILLE    FAIR      70  64  83 CALM      30.05R                  
WEST CHESTER   CLOUDY    72  63  73 NE5       30.03S                  
READING        NOT AVBL                                               
ALLENTOWN      MOCLDY    69  63  81 NE5       30.05R                  
QN CITY/ALNTWN CLOUDY    70  64  83 NE5       30.06R                  
MOUNT POCONO   FAIR      58  57  97 NW6       30.11R                  
HAZLETON       MOCLDY    64  55  72 CALM      30.13S                  
LEHIGHTON      FAIR      61  61 100 CALM      30.07R                  
WILKES BARRE   FAIR      63  59  87 E5        30.08S                  

$$
DEZALL-MDZ008-012-015-019-020-170300-
DELAWARE AND EASTERN MARYLAND
  
CITY           SKY/WX    TMP DP  RH WIND       PRES   REMARKS
WILMINGTON     CLOUDY    75  68  78 S3        30.01S                  
DOVER          MOCLDY    73  65  75 SE5       29.99S                  
CHESWOLD         N/A     72  68  88 CALM      30.00S                  
GEORGETOWN     CLOUDY    72  67  84 SE3       30.01R                  
EASTON         FAIR      76  66  71 CALM      30.03R                  
STEVENSVILLE   CLOUDY    77  66  69 E3        29.99S                  
PATUXENT       FAIR      75  67  76 S5        29.97                   
OCEAN CITY     MOCLDY    76  69  79 MISG      30.00S                  
WALLOPS ISLAND FAIR      73  69  87 S5        29.99F                  
CAMBRIDGE      CLOUDY    75  70  83 SE3       29.99S                  
SALISBURY      CLOUDY    71  66  84 CALM      29.99S                  

$$
PAZ001-021-NYZ056-072-MDZ011-DCZ001-170300-
OTHER NEARBY LOCATIONS
  
CITY           SKY/WX    TMP DP  RH WIND       PRES   REMARKS
HARRISBURG     MOCLDY    75  62  64 CALM      30.02R                  
STATE COLLEGE  PTCLDY    68  63  83 NE8       30.08R                  
WILLIAMSPORT   MOCLDY    69  59  70 N5        30.07R                  
BINGHAMTON     FAIR      57  47  69 N9        30.11R                  
NEW YORK CITY  CLOUDY    71  62  73 VRB3      30.07R                  
BALTIMORE      MOCLDY    79  64  60 NE9       30.00R                  
WASHINGTON DC  CLOUDY    80  62  54 E6        29.99R                  

$$